Flag for Micronesia Weather past 2 weeks in Palikir, Pohnpei, Micronesia

Now
81 °F

Mostly cloudy.


Feels Like: 87 °F
Forecast: 80 / 86 °F
Wind: 2 mph from Southwest

Location: Pohnpei

Current Time: Mar 29, 2015 at 12:44:24 PM

Latest Report: Mar 29, 2015 at 11:50 AM


Visibility: 15 mi

Pressure: 29.92 "Hg

Humidity: 88%

Dew point: 77 °F

Location of PalikirLocation

Historic Weather in Palikir — Graph

°F

Palikir temperature yesterday

Maximum temperature yesterday: 87 °F (at 9:55 AM)
Minimum temperature yesterday: 75 °F (at 8:53 PM)
Average temperature yesterday: 80 °F

Past Weeks' High & Low Weather Summary

 TemperatureHumidityPressure
High92 °F (Mar 14, 1:52 PM)100% (Mar 19, 6:53 PM)29.98 "Hg (Mar 19, 6:53 PM)
Low73 °F (Mar 21, 5:50 AM)59% (Mar 16, 10:53 AM)29.67 "Hg (Mar 27, 2:53 PM)
Average81 °F86%29.86 "Hg
* Reported Mar 14 10:53 AM — Mar 29 10:55 AM, Palikir, Weather by CustomWeather, © 2015

Note: Actual official high and low records may vary slightly from our data, if they occured in-between our weather recording intervals... More about our weather records

Advertising

Palikir weather history for previous 24 hours

 ConditionsComfort  
Time TempWeatherWind HumidityBarometerVisibility
10:55 AM
Sun, Mar 29
79 °FMostly cloudy.2 mph92%29.93 "Hg15 mi
9:55 AM76 °FSprinkles. Mostly cloudy.3 mph96%29.95 "Hg12 mi
8:54 AM76 °FLots of rain. Mostly cloudy.3 mph96%29.95 "Hg5 mi
7:54 AM78 °FMostly cloudy.3 mph95%29.90 "Hg15 mi
6:53 AM77 °FSprinkles. Mostly cloudy.3 mph95%29.88 "Hg12 mi
5:52 AM78 °FSprinkles. Mostly cloudy.5 mph94%29.86 "Hg12 mi
4:53 AM76 °FMostly cloudy.3 mph96%29.83 "Hg15 mi
3:52 AM76 °FMostly cloudy.3 mph96%29.83 "Hg15 mi
2:53 AM76 °FMostly cloudy.3 mph96%29.83 "Hg15 mi
1:52 AM77 °FMostly cloudy.3 mph92%29.83 "Hg15 mi
12:53 AM78 °FMostly cloudy.5 mph90%29.85 "Hg15 mi
11:52 PM
Sat, Mar 28
76 °FMostly cloudy.3 mph96%29.89 "Hg15 mi
10:52 PM76 °FMostly cloudy.3 mph98%29.90 "Hg15 mi
9:53 PM76 °FLight rain. Mostly cloudy.3 mph97%29.91 "Hg10 mi
8:53 PM75 °FSprinkles. Mostly cloudy.No wind99%29.92 "Hg10 mi
7:53 PM75 °FSprinkles. Mostly cloudy.No wind98%29.88 "Hg5 mi
6:52 PM77 °FSprinkles. Mostly cloudy.7 mph95%29.86 "Hg7 mi
5:53 PM85 °FMostly cloudy.3 mph73%29.83 "Hg15 mi
4:53 PM85 °FMostly cloudy.3 mph74%29.80 "Hg15 mi
3:55 PM80 °FSprinkles. Mostly cloudy.2 mph91%29.79 "Hg11 mi
2:55 PM77 °FSprinkles. Mostly cloudy.2 mph94%29.80 "Hg10 mi
1:55 PM86 °FMostly cloudy.9 mph73%29.80 "Hg15 mi
12:53 PM87 °FMostly cloudy.5 mph68%29.81 "Hg15 mi
Weather by CustomWeather, © 2015

See weather overviewHow to use our weather pages